DH7LK-5 Weather Reports


time (UTC)temp
F
wind
direction
speed
knots
gust
knots
rain 1hr
in
rain 24hr
in
rain mn
in
humidity
%
barometer
mb
20260507094746 49 103 4.3 7.8 0.00 0.00 0.00 88 1013.8
20260507091745 49 73 5.2 8.7 0.00 0.00 0.00 89 1013.3
20260507084742 49 103 5.2 9.6 0.00 0.00 0.00 89 1013.0
20260507081740 48 105 5.2 9.6 0.00 0.00 0.00 90 1012.6
20260507074734 48 83 7.0 13.0 0.00 0.00 0.00 91 1012.4
20260507065359 47 94 5.2 12.2 0.00 0.00 0.00 93 1012.0
20260507064701 47 94 5.2 12.2 0.00 0.00 0.00 93 1012.0
20260507061702 47 128 5.2 8.7 0.00 0.00 0.00 93 1011.6
20260507054700 47 53 4.3 6.1 0.00 0.00 0.00 94 1011.3
20260507051659 48 150 5.2 9.6 0.00 0.00 0.00 92 1011.0
20260507044658 47 142 4.3 7.8 0.00 0.00 0.00 93 1010.8
20260507041658 47 134 3.5 7.8 0.00 0.00 0.00 94 1010.6
20260507034657 47 120 4.3 9.6 0.00 0.00 0.00 95 1010.4
20260507031656 47 111 4.3 7.8 0.00 0.00 0.00 94 1010.2
20260507024655 47 62 4.3 7.0 0.00 0.00 0.00 92 1010.1
20260507021655 47 121 5.2 9.6 0.00 0.00 0.00 93 1009.8
20260507014654 47 121 5.2 8.7 0.00 0.00 0.00 94 1009.6
20260507011653 46 80 4.3 6.1 0.00 0.00 0.00 94 1009.8
20260507004653 47 113 5.2 10.4 0.00 0.00 0.00 94 1009.5
20260507001654 47 117 7.0 11.3 0.00 0.00 0.00 94 1009.2
20260506234651 49 124 7.0 14.8 0.00 0.00 0.87 92 1009.0
20260506231650 51 117 5.2 9.6 0.00 0.00 0.87 92 1008.8
20260506224650 52 79 5.2 10.4 0.00 0.00 0.87 90 1008.7
20260506221647 52 46 3.5 5.2 0.00 0.00 0.87 89 1008.4
20260506214646 52 48 4.3 7.0 0.00 0.00 0.87 89 1008.6
20260506211645 53 167 4.3 7.0 0.00 0.00 0.87 91 1008.4
20260506204641 53 63 3.5 5.2 0.00 0.00 0.87 92 1008.0
20260506201640 53 60 4.3 6.1 0.00 0.00 0.87 93 1007.9
20260506194638 53 52 2.6 5.2 0.00 0.00 0.87 92 1008.0
20260506191636 53 3 2.6 5.2 0.00 0.00 0.87 92 1007.8
20260506184635 54 118 3.5 5.2 0.00 0.00 0.87 93 1007.4
20260506181634 55 83 5.2 12.2 0.00 0.00 0.87 93 1006.9
20260506174633 55 141 3.5 7.0 0.00 0.00 0.87 91 1006.9
20260506171633 56 124 4.3 7.0 0.00 0.00 0.87 90 1006.6
20260506164632 56 122 5.2 9.6 0.00 0.00 0.87 90 1006.6
20260506162005 56 63 3.5 5.2 0.00 0.00 0.87 92 1006.3
20260506161630 56 63 3.5 5.2 0.00 0.00 0.87 92 1006.3
20260506154629 57 121 3.5 7.0 0.00 0.00 0.87 92 1006.7
20260506151628 56 347 2.6 5.2 0.00 0.00 0.87 93 1006.7
20260506144628 56 165 3.5 7.8 0.00 0.00 0.87 93 1006.5
20260506141627 57 113 2.6 6.1 0.00 0.00 0.87 93 1006.6
20260506134626 56 105 1.7 7.0 0.00 0.00 0.87 94 1006.6
20260506131624 55 51 2.6 5.2 0.00 0.00 0.87 94 1006.5
20260506124624 55 42 2.6 4.3 0.00 0.00 0.87 95 1006.5
20260506121623 55 60 1.7 3.5 0.00 0.00 0.87 95 1006.5
20260506114622 55 122 0.9 4.3 0.00 0.00 0.87 96 1006.4
20260506111616 54 114 1.7 5.2 0.00 0.00 0.87 96 1005.9
20260506104609 54 65 1.7 5.2 0.00 0.00 0.87 97 1005.9
20260506101608 53 339 1.7 7.0 0.00 0.00 0.87 97 1005.6